Weather History for Champaign, IL

Change the Weather History Date:

Friday, November 2, 2012

  Actual Average Record
Temperature  
Mean Temperature 42 °F 48 °F  
Max Temperature 52 °F 58 °F 74 °F (2008)
Min Temperature 32 °F 37 °F 19 °F (2006)
Degree Days  
Heating Degree Days 23 17  
Month to date heating degree days 46 34  
Since 1 July heating degree days 532 495  
Cooling Degree Days 0 0  
Month to date cooling degree days 0 0  
Year to date cooling degree days 1290 944  
Moisture  
Dew Point 30 °F    
Average Humidity 64    
Maximum Humidity 89    
Minimum Humidity 39    
Precipitation  
Precipitation 0.00 in 0.10 in 0.62 in (1998)
Month to date precipitation 0.00 0.22  
Year to date precipitation 25.43 33.92  
Sea Level Pressure  
Sea Level Pressure 30.05 in    
Wind  
Wind Speed 8 mph (NNE)    
Max Wind Speed 15 mph    
Max Gust Speed 18 mph    
Visibility 10 miles    
Events      
T = Trace of Precipitation, MM = Missing Value Source: NWS Daily Summary

Daily Weather History Graph

Daily Weather History Graph

Search for Another Location

Airport:

Trip Planner

Search our weather history database for the weather conditions in past years. The results will help you decide how hot, cold, wet, or windy it might be!

Date:

Astronomy

Nov. 02, 2012 Rise Set
Actual Time 7:23 AM CDT 5:48 PM CDT
Civil Twilight 6:55 AM CDT 6:17 PM CDT
Nautical Twilight 6:23 AM CDT 6:49 PM CDT
Astronomical Twilight 5:52 AM CDT 7:20 PM CDT
Moon 8:35 PM CDT (11/2) 10:44 AM CDT (11/2)
Length of Visible Light 11h 21m
Length of Day
10h 24m
Waning Gibbous, 87% of the Moon is Illuminated
Nov 2
Waning Gibbous
Nov 6
Last Quarter
Nov 13
New
Nov 20
First Quarter
Nov 28
Full

Hourly Weather History & Observations

Time (CDT) Temp. Windchill Dew Point Humidity Pressure Visibility Wind Dir Wind Speed Gust Speed Precip Events Conditions
12:53 AM 34.0 °F 26.6 °F 30.0 °F 85% 29.89 in 8.0 mi NNW 9.2 mph - N/A   Clear
1:53 AM 37.9 °F 30.5 °F 32.0 °F 79% 29.91 in 10.0 mi North 11.5 mph - N/A   Clear
2:53 AM 37.0 °F 29.8 °F 30.9 °F 79% 29.94 in 10.0 mi North 10.4 mph - N/A   Clear
3:53 AM 36.0 °F 28.5 °F 30.0 °F 79% 29.95 in 10.0 mi North 10.4 mph - N/A   Clear
4:53 AM 35.1 °F 28.6 °F 28.0 °F 76% 29.97 in 10.0 mi North 8.1 mph - N/A   Clear
5:53 AM 34.0 °F 28.0 °F 28.0 °F 79% 30.00 in 10.0 mi North 6.9 mph - N/A   Clear
6:53 AM 33.1 °F 25.5 °F 28.0 °F 82% 30.02 in 10.0 mi North 9.2 mph - N/A   Clear
7:53 AM 33.1 °F 26.1 °F 28.0 °F 82% 30.04 in 10.0 mi North 8.1 mph - N/A   Clear
8:53 AM 39.0 °F 32.3 °F 30.9 °F 73% 30.07 in 10.0 mi North 10.4 mph - N/A   Clear
9:53 AM 43.0 °F 36.8 °F 33.1 °F 68% 30.08 in 10.0 mi NNE 11.5 mph - N/A   Clear
10:53 AM 45.0 °F 42.6 °F 33.1 °F 63% 30.10 in 10.0 mi North 4.6 mph - N/A   Clear
11:53 AM 48.0 °F - 33.1 °F 56% 30.10 in 10.0 mi NNE 3.5 mph - N/A   Clear
12:53 PM 50.0 °F - 32.0 °F 50% 30.09 in 10.0 mi Variable 5.8 mph - N/A   Clear
1:53 PM 50.0 °F - 32.0 °F 50% 30.08 in 10.0 mi North 5.8 mph - N/A   Clear
2:53 PM 51.1 °F - 28.0 °F 41% 30.07 in 10.0 mi North 6.9 mph - N/A   Clear
3:53 PM 51.1 °F - 28.0 °F 41% 30.08 in 10.0 mi NNW 6.9 mph - N/A   Clear
4:53 PM 50.0 °F - 27.0 °F 41% 30.08 in 10.0 mi North 6.9 mph - N/A   Clear
5:53 PM 46.9 °F - 26.1 °F 44% 30.09 in 10.0 mi NNE 6.9 mph - N/A   Clear
6:53 PM 43.0 °F 39.5 °F 27.0 °F 53% 30.09 in 10.0 mi NE 5.8 mph - N/A   Clear
7:53 PM 39.9 °F 35.1 °F 28.0 °F 63% 30.11 in 10.0 mi NNE 6.9 mph - N/A   Clear
8:53 PM 39.9 °F 35.8 °F 27.0 °F 60% 30.11 in 10.0 mi NE 5.8 mph - N/A   Clear
9:53 PM 39.9 °F 33.9 °F 30.9 °F 70% 30.12 in 10.0 mi ENE 9.2 mph - N/A   Clear
10:53 PM 41.0 °F 33.1 °F 34.0 °F 76% 30.12 in 10.0 mi ENE 15.0 mph - N/A   Scattered Clouds
11:53 PM 39.0 °F 32.3 °F 35.1 °F 86% 30.13 in 10.0 mi East 10.4 mph - N/A   Clear